Location: ????????
(55.6189°N, 38.3031°E)
Time: 23:16:58
(UTC+00:00)

Lacrosse 5 - Pass Details

Date: 15 November 2019
Orbit: 715 x 724 km, 57.0° (Epoch: 30 November)

Event Time Altitude Azimuth Distance (km) Brightness Sun altitude
Exits shadow 03:05:53 16° 236° (SW) 1,841 3.6 -15.8°
Maximum altitude 03:09:58 71° 154° (SSE) 764 2.1 -15.3°
Drops below altitude 10° 03:15:01 10° 72° (ENE) 2,208 5.3 -14.6°
Sets 03:17:25 0° 70° (ENE) 3,129 6.2 -14.2°
